This is the latest recevied weather packets stored in our database for station/object KD4UFD. If no packets are shown the sender has not sent any weather packets the latest 10 day(s).
| Time | Temp. | Humidity | Pressure | Rain* | Wind** | Luminosity | Snow |
|---|---|---|---|---|---|---|---|
| 1777723549 | 10° C | 70% | 1015.2 hPa | 0 mm | - | 78 W/m² | - |
| 1777723246 | 10° C | 70% | 1015.4 hPa | 0 mm | - | 70 W/m² | - |
| 1777722944 | 10° C | 69% | 1015.4 hPa | 0 mm | - | 75 W/m² | - |
| 1777722639 | 10° C | 69% | 1015.3 hPa | 0 mm | - | 79 W/m² | - |
| 1777722336 | 10° C | 71% | 1015.3 hPa | 0 mm | - | 71 W/m² | - |
| 1777722033 | 9.44° C | 72% | 1014.9 hPa | 0 mm | - | 51 W/m² | - |
| 1777721731 | 9.44° C | 71% | 1014.8 hPa | 0 mm | - | 48 W/m² | - |
| 1777721429 | 9.44° C | 71% | 1014.9 hPa | 0 mm | - | 29 W/m² | - |
| 1777721127 | 9.44° C | 71% | 1014.6 hPa | 0 mm | - | 26 W/m² | - |
| 1777720824 | 9.44° C | 71% | 1014.7 hPa | 0 mm | - | 19 W/m² | - |
| 1777720521 | 9.44° C | 72% | 1014.8 hPa | 0 mm | - | 21 W/m² | - |
| 1777720219 | 9.44° C | 71% | 1014.9 hPa | 0 mm | - | 10 W/m² | - |
| 1777719916 | 9.44° C | 71% | 1014.8 hPa | 0 mm | - | 9 W/m² | - |
| 1777719614 | 9.44° C | 72% | 1015.1 hPa | 0 mm | - | 4 W/m² | - |
| 1777719311 | 9.44° C | 72% | 1015 hPa | 0 mm | - | 3 W/m² | - |
| 1777719008 | 9.44° C | 72% | 1014.7 hPa | 0 mm | - | 1 W/m² | - |
| 1777718705 | 9.44° C | 71% | 1014.8 hPa | 0 mm | - | 0 W/m² | - |
| 1777718403 | 9.44° C | 71% | 1014.4 hPa | 0 mm | - | 0 W/m² | - |
| 1777718100 | 9.44° C | 71% | 1014.6 hPa | 0 mm | - | 0 W/m² | - |
| 1777717797 | 10° C | 70% | 1014.8 hPa | 0 mm | - | 0 W/m² | - |
| 1777717494 | 10° C | 70% | 1014.9 hPa | 0 mm | - | 0 W/m² | - |
| 1777717190 | 10° C | 70% | 1014.7 hPa | 0 mm | - | 0 W/m² | - |
| 1777716889 | 10° C | 69% | 1014.7 hPa | 0 mm | - | 0 W/m² | - |
| 1777716587 | 10° C | 69% | 1014.8 hPa | 0 mm | - | 0 W/m² | - |
| 1777716286 | 10° C | 69% | 1014.7 hPa | 0 mm | - | 0 W/m² | - |
* Rain latest hour (hover to see other rain measurements)
** Current wind speed in m/s (hover to see current wind gust speed)